SWA4381 KLAX-KPHX

Flight info

Callsign SWA4381
Flight time 0h 58m
Altitude 35000
Route DOTSS2 CNERY BLH HYDRR1
Aircraft B738/M-SDE2E3FGHIRWXY/LB1

Departure

Time 2026-05-05 17:36
Airport Los Angeles International Airport (KLAX)

Arrival

Time 2026-05-05 18:35
Airport Phoenix Sky Harbor International Airport (KPHX)
Time Latitude Longitude Altitude Speed Heading
2026-05-05 17:15 33.94726 -118.40196 120 ft 0 kts 82°
2026-05-05 17:28 33.94725 -118.40199 125 ft 3 kts 82°
2026-05-05 17:28 33.94722 -118.40226 121 ft 2 kts 82°
2026-05-05 17:29 33.94715 -118.40249 121 ft 4 kts 25°
2026-05-05 17:29 33.94692 -118.40252 122 ft 4 kts 353°
2026-05-05 17:29 33.94665 -118.40248 123 ft 4 kts 353°
2026-05-05 17:29 33.94661 -118.40247 124 ft 0 kts 353°
2026-05-05 17:33 33.94668 -118.40248 123 ft 0 kts 353°
2026-05-05 17:34 33.94729 -118.40258 120 ft 14 kts 352°
2026-05-05 17:34 33.94806 -118.40270 123 ft 8 kts 341°
2026-05-05 17:34 33.94859 -118.40287 124 ft 8 kts
2026-05-05 17:34 33.94897 -118.40244 121 ft 8 kts 64°
2026-05-05 17:35 33.94910 -118.40161 125 ft 16 kts 83°
2026-05-05 17:35 33.94925 -118.40018 125 ft 18 kts 83°
2026-05-05 17:35 33.94998 -118.39912 123 ft 19 kts 352°
2026-05-05 17:35 33.95032 -118.40049 122 ft 34 kts 264°
2026-05-05 17:36 33.94957 -118.40760 125 ft 133 kts 262°
2026-05-05 17:36 33.94821 -118.42147 480 ft 190 kts 261°
2026-05-05 17:36 33.94640 -118.43793 1735 ft 195 kts 263°
2026-05-05 17:36 33.94483 -118.45400 2894 ft 203 kts 264°
2026-05-05 17:37 33.94321 -118.47271 3094 ft 244 kts 267°
2026-05-05 17:37 33.94268 -118.48652 3631 ft 253 kts 268°
2026-05-05 17:37 33.94189 -118.51484 4947 ft 254 kts 267°
2026-05-05 17:37 33.94056 -118.53653 5748 ft 267 kts 262°
2026-05-05 17:38 33.93374 -118.55874 6055 ft 302 kts 236°
2026-05-05 17:38 33.91835 -118.57532 7266 ft 296 kts 208°
2026-05-05 17:38 33.89920 -118.58222 8801 ft 281 kts 188°
2026-05-05 17:38 33.87967 -118.58123 9883 ft 286 kts 170°
2026-05-05 17:39 33.86004 -118.57528 10500 ft 300 kts 166°
2026-05-05 17:39 33.83894 -118.56808 10702 ft 328 kts 165°
2026-05-05 17:39 33.81629 -118.56022 11035 ft 347 kts 165°
2026-05-05 17:39 33.79286 -118.55223 11808 ft 351 kts 165°
2026-05-05 17:40 33.76921 -118.54435 12572 ft 356 kts 166°
2026-05-05 17:40 33.74506 -118.53646 13271 ft 361 kts 166°
2026-05-05 17:40 33.72115 -118.52784 14026 ft 366 kts 158°
2026-05-05 17:40 33.70015 -118.51036 14682 ft 372 kts 133°
2026-05-05 17:41 33.68570 -118.48462 15383 ft 375 kts 112°
2026-05-05 17:41 33.67671 -118.45475 16131 ft 377 kts 108°
2026-05-05 17:41 33.66848 -118.42508 16759 ft 382 kts 108°
2026-05-05 17:41 33.65976 -118.39451 17501 ft 384 kts 108°
2026-05-05 17:42 33.65095 -118.36413 18175 ft 387 kts 107°
2026-05-05 17:42 33.64493 -118.33254 18769 ft 390 kts 96°
2026-05-05 17:42 33.64356 -118.29998 19338 ft 392 kts 89°
2026-05-05 17:42 33.64371 -118.26714 19937 ft 394 kts 88°
2026-05-05 17:43 33.64403 -118.23461 20466 ft 398 kts 88°
2026-05-05 17:43 33.64433 -118.20121 21024 ft 401 kts 88°
2026-05-05 17:43 33.64452 -118.16765 21638 ft 404 kts 88°
2026-05-05 17:43 33.64461 -118.13382 22175 ft 407 kts 89°
2026-05-05 17:44 33.64465 -118.09970 22740 ft 410 kts 89°
2026-05-05 17:44 33.64464 -118.06532 23287 ft 413 kts 89°
2026-05-05 17:44 33.64460 -118.03075 23713 ft 417 kts 89°
2026-05-05 17:44 33.64455 -117.99583 24181 ft 419 kts 89°
2026-05-05 17:45 33.64449 -117.96073 24547 ft 424 kts 89°
2026-05-05 17:45 33.64443 -117.92513 24886 ft 428 kts 89°
2026-05-05 17:45 33.64435 -117.88926 25301 ft 430 kts 90°
2026-05-05 17:45 33.64427 -117.85362 25676 ft 434 kts 90°
2026-05-05 17:46 33.64409 -117.81695 26047 ft 437 kts 91°
2026-05-05 17:46 33.64095 -117.78044 26391 ft 441 kts 102°
2026-05-05 17:46 33.63303 -117.74481 26754 ft 443 kts 107°
2026-05-05 17:46 33.62400 -117.70937 27136 ft 446 kts 108°
2026-05-05 17:47 33.61477 -117.67364 27474 ft 450 kts 108°
2026-05-05 17:47 33.60556 -117.63768 27803 ft 453 kts 108°
2026-05-05 17:47 33.59639 -117.60135 28130 ft 456 kts 107°
2026-05-05 17:47 33.58727 -117.56482 28452 ft 459 kts 107°
2026-05-05 17:48 33.57825 -117.52847 28781 ft 462 kts 107°
2026-05-05 17:48 33.56897 -117.49098 29117 ft 465 kts 107°
2026-05-05 17:48 33.55975 -117.45373 29394 ft 468 kts 108°
2026-05-05 17:48 33.55056 -117.41668 29622 ft 472 kts 108°
2026-05-05 17:49 33.54101 -117.37832 29900 ft 475 kts 109°
2026-05-05 17:49 33.52183 -117.30140 30181 ft 485 kts 109°
2026-05-05 17:49 33.51220 -117.26270 30564 ft 484 kts 108°
2026-05-05 17:50 33.50490 -117.22333 30941 ft 485 kts 100°
2026-05-05 17:50 33.50259 -117.18347 31240 ft 488 kts 93°
2026-05-05 17:50 33.50223 -117.14272 31470 ft 491 kts 92°
2026-05-05 17:50 33.50216 -117.10172 31691 ft 494 kts 92°
2026-05-05 17:51 33.50206 -117.06055 32005 ft 494 kts 92°
2026-05-05 17:51 33.50180 -117.01944 32346 ft 493 kts 93°
2026-05-05 17:51 33.50139 -116.97836 32637 ft 494 kts 93°
2026-05-05 17:51 33.50084 -116.93714 32902 ft 495 kts 93°
2026-05-05 17:52 33.50022 -116.89581 33184 ft 496 kts 94°
2026-05-05 17:52 33.49956 -116.85444 33460 ft 497 kts 94°
2026-05-05 17:52 33.49888 -116.81282 33562 ft 503 kts 94°
2026-05-05 17:52 33.49819 -116.77080 33776 ft 505 kts 94°
2026-05-05 17:53 33.49750 -116.72887 34093 ft 504 kts 94°
2026-05-05 17:53 33.49682 -116.68693 34420 ft 502 kts 94°
2026-05-05 17:53 33.49613 -116.64530 34771 ft 499 kts 94°
2026-05-05 17:53 33.49541 -116.60367 34985 ft 500 kts 94°
2026-05-05 17:54 33.49467 -116.56179 34941 ft 504 kts 95°
2026-05-05 17:54 33.49339 -116.49192 34962 ft 505 kts 95°
2026-05-05 17:55 33.49188 -116.40811 34958 ft 500 kts 94°
2026-05-05 17:55 33.49064 -116.32500 34939 ft 499 kts 95°
2026-05-05 17:56 33.48944 -116.24206 34961 ft 496 kts 95°
2026-05-05 17:56 33.49312 -116.15853 34952 ft 512 kts 79°
2026-05-05 17:57 33.51106 -116.07573 34950 ft 514 kts 76°
2026-05-05 17:57 33.53016 -115.99309 34946 ft 515 kts 76°
2026-05-05 17:58 33.54840 -115.91004 34937 ft 515 kts 77°
2026-05-05 17:58 33.56610 -115.82694 34949 ft 515 kts 78°
2026-05-05 17:59 33.58377 -115.74363 34933 ft 515 kts 78°
2026-05-05 17:59 33.60138 -115.66067 34939 ft 513 kts 78°
2026-05-05 18:00 33.61687 -115.57739 34928 ft 509 kts 87°
2026-05-05 18:00 33.61730 -115.49355 34947 ft 502 kts 97°
2026-05-05 18:01 33.61428 -115.40985 34941 ft 503 kts 97°
2026-05-05 18:01 33.61179 -115.32595 34928 ft 504 kts 97°
2026-05-05 18:02 33.60964 -115.24183 34927 ft 505 kts 97°
2026-05-05 18:02 33.60744 -115.15761 34941 ft 505 kts 97°
2026-05-05 18:03 33.60515 -115.07329 34934 ft 506 kts 97°
2026-05-05 18:03 33.60279 -114.98884 34882 ft 507 kts 98°
2026-05-05 18:04 33.60035 -114.90411 34937 ft 510 kts 98°
2026-05-05 18:04 33.59782 -114.81888 34957 ft 513 kts 98°
2026-05-05 18:04 33.59654 -114.77593 34812 ft 518 kts 98°
2026-05-05 18:05 33.59303 -114.73309 34196 ft 514 kts 108°
2026-05-05 18:05 33.58575 -114.69190 33588 ft 509 kts 112°
2026-05-05 18:05 33.57703 -114.65029 32890 ft 508 kts 113°
2026-05-05 18:05 33.56806 -114.60925 32235 ft 508 kts 113°
2026-05-05 18:06 33.55939 -114.56881 31579 ft 508 kts 112°
2026-05-05 18:06 33.55359 -114.54100 31122 ft 509 kts 112°
2026-05-05 18:06 33.54258 -114.48631 30246 ft 508 kts 111°
2026-05-05 18:06 33.53462 -114.44551 29686 ft 496 kts 111°
2026-05-05 18:07 33.52693 -114.40574 29116 ft 486 kts 110°
2026-05-05 18:07 33.51929 -114.36654 28606 ft 480 kts 111°
2026-05-05 18:07 33.51167 -114.32778 28107 ft 475 kts 110°
2026-05-05 18:07 33.50410 -114.28947 27615 ft 471 kts 110°
2026-05-05 18:08 33.49654 -114.25137 27107 ft 467 kts 109°
2026-05-05 18:08 33.48906 -114.21372 26634 ft 462 kts 109°
2026-05-05 18:08 33.48165 -114.17647 26151 ft 458 kts 108°
2026-05-05 18:08 33.47429 -114.13952 25670 ft 453 kts 108°
2026-05-05 18:09 33.46702 -114.10298 25190 ft 449 kts 107°
2026-05-05 18:09 33.45981 -114.06681 24774 ft 443 kts 108°
2026-05-05 18:09 33.45276 -114.03151 24522 ft 430 kts 108°
2026-05-05 18:09 33.44578 -113.99678 24291 ft 428 kts 108°
2026-05-05 18:10 33.43881 -113.96219 24051 ft 426 kts 107°
2026-05-05 18:10 33.43184 -113.92760 23807 ft 427 kts 107°
2026-05-05 18:10 33.42491 -113.89311 23494 ft 425 kts 107°
2026-05-05 18:10 33.41802 -113.85894 23112 ft 417 kts 107°
2026-05-05 18:11 33.41137 -113.82593 22820 ft 410 kts 107°
2026-05-05 18:11 33.40472 -113.79297 22556 ft 407 kts 107°
2026-05-05 18:11 33.39804 -113.75992 22293 ft 408 kts 107°
2026-05-05 18:11 33.39137 -113.72692 22012 ft 407 kts 107°
2026-05-05 18:12 33.38469 -113.69379 21768 ft 414 kts 109°
2026-05-05 18:12 33.37781 -113.66006 21502 ft 419 kts 109°
2026-05-05 18:12 33.37095 -113.62631 21221 ft 415 kts 108°
2026-05-05 18:12 33.36418 -113.59293 20950 ft 411 kts 109°
2026-05-05 18:13 33.35746 -113.55983 20686 ft 408 kts 108°
2026-05-05 18:13 33.35077 -113.52695 20415 ft 404 kts 108°
2026-05-05 18:13 33.34414 -113.49445 20147 ft 401 kts 108°
2026-05-05 18:13 33.33753 -113.46214 19885 ft 398 kts 108°
2026-05-05 18:14 33.33139 -113.42985 19593 ft 397 kts 106°
2026-05-05 18:14 33.32590 -113.39762 19325 ft 395 kts 105°
2026-05-05 18:14 33.32058 -113.36559 19075 ft 392 kts 105°
2026-05-05 18:14 33.31525 -113.33376 18823 ft 389 kts 105°
2026-05-05 18:15 33.30984 -113.30207 18577 ft 387 kts 105°
2026-05-05 18:15 33.30441 -113.27065 18331 ft 384 kts 105°
2026-05-05 18:15 33.29900 -113.23950 18091 ft 381 kts 105°
2026-05-05 18:15 33.29388 -113.20856 17834 ft 379 kts 103°
2026-05-05 18:16 33.28952 -113.17789 17583 ft 377 kts 103°
2026-05-05 18:16 33.28530 -113.14699 17327 ft 375 kts 103°
2026-05-05 18:16 33.28101 -113.11629 17090 ft 373 kts 103°
2026-05-05 18:16 33.27670 -113.08605 16832 ft 366 kts 104°
2026-05-05 18:17 33.27349 -113.05635 16593 ft 359 kts 96°
2026-05-05 18:17 33.27368 -113.02629 16402 ft 357 kts 91°
2026-05-05 18:17 33.27496 -112.99671 16168 ft 357 kts 90°
2026-05-05 18:17 33.27632 -112.96692 15957 ft 360 kts 90°
2026-05-05 18:18 33.27747 -112.93695 15722 ft 361 kts 91°
2026-05-05 18:18 33.27839 -112.90739 15487 ft 359 kts 91°
2026-05-05 18:18 33.27918 -112.87731 15255 ft 357 kts 92°
2026-05-05 18:18 33.27989 -112.84817 15026 ft 352 kts 92°
2026-05-05 18:19 33.28063 -112.81927 14802 ft 347 kts 91°
2026-05-05 18:19 33.28256 -112.79062 14578 ft 344 kts 87°
2026-05-05 18:19 33.28531 -112.76236 14348 ft 339 kts 87°
2026-05-05 18:19 33.28817 -112.73467 14136 ft 335 kts 87°
2026-05-05 18:20 33.29098 -112.70721 13918 ft 330 kts 87°
2026-05-05 18:20 33.29368 -112.68008 13707 ft 328 kts 87°
2026-05-05 18:20 33.29629 -112.65315 13473 ft 325 kts 88°
2026-05-05 18:20 33.29883 -112.62638 13257 ft 323 kts 88°
2026-05-05 18:21 33.30134 -112.59973 13041 ft 321 kts 88°
2026-05-05 18:21 33.30381 -112.57319 12825 ft 320 kts 87°
2026-05-05 18:21 33.30625 -112.54685 12613 ft 318 kts 87°
2026-05-05 18:21 33.30868 -112.52065 12402 ft 316 kts 87°
2026-05-05 18:22 33.31109 -112.49453 12199 ft 315 kts 87°
2026-05-05 18:22 33.31349 -112.46851 11996 ft 315 kts 87°
2026-05-05 18:22 33.31587 -112.44253 11788 ft 314 kts 88°
2026-05-05 18:22 33.31826 -112.41656 11587 ft 313 kts 87°
2026-05-05 18:23 33.32061 -112.39075 11388 ft 312 kts 87°
2026-05-05 18:23 33.32297 -112.36495 11181 ft 311 kts 87°
2026-05-05 18:23 33.32523 -112.33942 10973 ft 308 kts 88°
2026-05-05 18:23 33.32747 -112.31416 10780 ft 305 kts 87°
2026-05-05 18:24 33.32981 -112.28901 10573 ft 303 kts 86°
2026-05-05 18:24 33.33212 -112.26415 10380 ft 301 kts 86°
2026-05-05 18:24 33.33440 -112.23939 10184 ft 297 kts 87°
2026-05-05 18:24 33.33662 -112.21497 9984 ft 294 kts 86°
2026-05-05 18:25 33.33881 -112.19089 9780 ft 288 kts 86°
2026-05-05 18:25 33.34022 -112.17533 9613 ft 281 kts 86°
2026-05-05 18:25 33.34297 -112.14496 9365 ft 268 kts 87°
2026-05-05 18:25 33.34494 -112.12319 9196 ft 260 kts 88°
2026-05-05 18:26 33.34684 -112.10197 9031 ft 254 kts 88°
2026-05-05 18:26 33.34809 -112.08123 8785 ft 248 kts 94°
2026-05-05 18:26 33.34781 -112.06104 8534 ft 245 kts 95°
2026-05-05 18:26 33.34730 -112.04049 8297 ft 243 kts 95°
2026-05-05 18:27 33.34688 -112.02029 8052 ft 244 kts 95°
2026-05-05 18:27 33.34653 -111.99999 7800 ft 245 kts 94°
2026-05-05 18:27 33.34623 -111.97961 7542 ft 245 kts 94°
2026-05-05 18:27 33.34594 -111.95919 7293 ft 246 kts 94°
2026-05-05 18:28 33.34537 -111.91852 7007 ft 241 kts 94°
2026-05-05 18:28 33.34503 -111.89881 7019 ft 234 kts 94°
2026-05-05 18:28 33.34466 -111.87937 6854 ft 236 kts 94°
2026-05-05 18:29 33.34436 -111.85974 6611 ft 236 kts 93°
2026-05-05 18:29 33.34386 -111.83991 6211 ft 242 kts 94°
2026-05-05 18:29 33.34549 -111.81968 5837 ft 247 kts 72°
2026-05-05 18:29 33.35471 -111.80272 5590 ft 243 kts 39°
2026-05-05 18:30 33.36958 -111.79400 5329 ft 241 kts
2026-05-05 18:30 33.38610 -111.79261 5201 ft 235 kts 358°
2026-05-05 18:30 33.40223 -111.79374 5033 ft 229 kts 341°
2026-05-05 18:30 33.41534 -111.80312 4908 ft 216 kts 307°
2026-05-05 18:31 33.42269 -111.81848 4727 ft 212 kts 287°
2026-05-05 18:31 33.42493 -111.83568 4556 ft 208 kts 271°
2026-05-05 18:31 33.42603 -111.85261 4498 ft 199 kts 272°
2026-05-05 18:31 33.42732 -111.86872 4384 ft 186 kts 273°
2026-05-05 18:32 33.42845 -111.88408 4064 ft 186 kts 271°
2026-05-05 18:32 33.42896 -111.89940 3851 ft 180 kts 268°
2026-05-05 18:32 33.42875 -111.91393 3575 ft 166 kts 266°
2026-05-05 18:32 33.42851 -111.92736 3389 ft 158 kts 268°
2026-05-05 18:33 33.42871 -111.93963 3096 ft 140 kts 271°
2026-05-05 18:33 33.42891 -111.94724 2853 ft 131 kts 268°
2026-05-05 18:33 33.42900 -111.95790 2547 ft 127 kts 266°
2026-05-05 18:33 33.42899 -111.97184 2045 ft 127 kts 267°
2026-05-05 18:34 33.42889 -111.97889 1759 ft 124 kts 270°
2026-05-05 18:34 33.42878 -111.98889 1474 ft 117 kts 272°
2026-05-05 18:34 33.42890 -111.99856 1294 ft 114 kts 268°
2026-05-05 18:34 33.42887 -112.00784 1140 ft 105 kts 268°
2026-05-05 18:35 33.42886 -112.01549 1131 ft 75 kts 270°
2026-05-05 18:35 33.42893 -112.02031 1126 ft 32 kts 278°
2026-05-05 18:35 33.42937 -112.02149 1122 ft 9 kts 320°
2026-05-05 18:35 33.42988 -112.02132 1126 ft 9 kts 66°
2026-05-05 18:36 33.42996 -112.02057 1123 ft 11 kts 89°
2026-05-05 18:36 33.42998 -112.01944 1121 ft 16 kts 87°
2026-05-05 18:36 33.42995 -112.01812 1127 ft 16 kts 90°
2026-05-05 18:36 33.42996 -112.01682 1122 ft 16 kts 91°
2026-05-05 18:37 33.43002 -112.01515 1134 ft 21 kts 83°
2026-05-05 18:37 33.42995 -112.01343 1133 ft 21 kts 90°
2026-05-05 18:37 33.42995 -112.01175 1129 ft 20 kts 89°
2026-05-05 18:37 33.42994 -112.01012 1130 ft 19 kts 91°
2026-05-05 18:38 33.42994 -112.00854 1133 ft 19 kts 89°
2026-05-05 18:38 33.42996 -112.00702 1132 ft 18 kts 89°
2026-05-05 18:38 33.43076 -112.00625 1134 ft 17 kts 358°
2026-05-05 18:38 33.43183 -112.00594 1134 ft 17 kts 52°
2026-05-05 18:39 33.43215 -112.00462 1132 ft 16 kts 89°
2026-05-05 18:39 33.43269 -112.00368 1132 ft 14 kts 46°
2026-05-05 18:39 33.43284 -112.00255 1133 ft 14 kts 89°
2026-05-05 18:39 33.43284 -112.00137 1133 ft 20 kts 90°
2026-05-05 18:40 33.43284 -111.99958 1132 ft 20 kts 90°
2026-05-05 18:40 33.43289 -111.99831 1134 ft 10 kts 72°
2026-05-05 18:40 33.43342 -111.99789 1133 ft 9 kts 23°
2026-05-05 18:40 33.43360 -111.99754 1130 ft 4 kts 76°
2026-05-05 18:41 33.43363 -111.99737 1134 ft 1 kts 77°
2026-05-05 18:41 33.43364 -111.99731 1132 ft 1 kts 77°
2026-05-05 18:41 33.43364 -111.99729 1132 ft 0 kts 78°